Charlotte, NC

12:14 PM EDT on May 22, 2018 (GMT -0400)
Charlotte-Douglas International

Weather History for KCLT - April, 2014

Change the Weather History Date:

Wednesday, April 2, 2014

  Actual Average Record
Temperature  
Mean Temperature 70 °F 56 °F  
Max Temperature 86 °F 68 °F 86 °F (1978)
Min Temperature 53 °F 43 °F 28 °F (1881)
Degree Days  
Heating Degree Days 0 10  
Month to date heating degree days 4 20  
Since 1 July heating degree days 3221 3152  
Cooling Degree Days 5 1  
Month to date cooling degree days 5 1  
Year to date cooling degree days 6 6  
Growing Degree Days 20 (Base 50)    
Moisture  
Dew Point 35 °F    
Average Humidity 33    
Maximum Humidity 51    
Minimum Humidity 14    
Precipitation  
Precipitation 0.00 in 0.12 in 2.99 in (1901)
Month to date precipitation 0.00 0.23  
Year to date precipitation 11.40 10.97  
Snow  
Snow 0.00 in 0.00 in 0.00 in ()
Month to date snowfall 0.0 0.0  
Since 1 July snowfall 9.3 4.3  
Snow Depth 0.00 in    
Sea Level Pressure  
Sea Level Pressure 30.05 in    
Wind  
Wind Speed 7 mph (SSW)    
Max Wind Speed 17 mph    
Max Gust Speed 23 mph    
Visibility 10 miles    
Events      
T = Trace of Precipitation, MM = Missing Value Source: NWS Daily Summary

Daily Weather History Graph

Daily Weather History Graph

Search for Another Location

Airport or City:

Astronomy

Apr. 02, 2014 Rise Set
Actual Time 7:09 AM EDT 7:46 PM EDT
Civil Twilight 6:43 AM EDT 8:11 PM EDT
Nautical Twilight 6:13 AM EDT 8:41 PM EDT
Astronomical Twilight 5:42 AM EDT 9:12 PM EDT
Moon 8:58 AM EDT (4/2) 11:00 PM EDT (4/2)
Length of Visible Light 13h 28m
Length of Day
12h 36m
Waxing Crescent, 10% of the Moon is Illuminated
Apr 2
Waxing Crescent
Apr 7
First Quarter
Apr 15
Full
Apr 22
Last Quarter
Apr 29
New

Hourly Weather History & Observations

Time (EDT) Temp. Dew Point Humidity Pressure Visibility Wind Dir Wind Speed Gust Speed Precip Events Conditions
12:52 AM 63.0 °F 37.9 °F 40% 30.06 in 10.0 mi SSW 6.9 mph - N/A   Clear
1:52 AM 63.0 °F 37.0 °F 38% 30.06 in 10.0 mi SW 5.8 mph - N/A   Clear
2:52 AM 61.0 °F 37.0 °F 41% 30.05 in 10.0 mi SSW 6.9 mph - N/A   Clear
3:52 AM 57.9 °F 37.0 °F 46% 30.05 in 10.0 mi SSW 6.9 mph - N/A   Clear
4:52 AM 59.0 °F 36.0 °F 42% 30.04 in 10.0 mi SW 6.9 mph - N/A   Clear
5:52 AM 57.9 °F 36.0 °F 44% 30.04 in 10.0 mi WSW 3.5 mph - N/A   Clear
6:52 AM 55.0 °F 36.0 °F 49% 30.06 in 10.0 mi Calm Calm - N/A   Clear
8:52 AM 62.1 °F 39.9 °F 44% 30.09 in 10.0 mi South 4.6 mph - N/A   Clear
9:52 AM 66.9 °F 37.0 °F 33% 30.10 in 10.0 mi SW 5.8 mph - N/A   Clear
10:52 AM 73.9 °F 37.9 °F 27% 30.10 in 10.0 mi SW 5.8 mph - N/A   Partly Cloudy
11:52 AM 78.1 °F 37.9 °F 24% 30.10 in 10.0 mi SW 6.9 mph - N/A   Partly Cloudy
12:52 PM 81.0 °F 36.0 °F 20% 30.08 in 10.0 mi South 9.2 mph - N/A   Scattered Clouds
1:52 PM 82.9 °F 36.0 °F 19% 30.06 in 10.0 mi SW 11.5 mph 19.6 mph N/A   Scattered Clouds
2:52 PM 84.9 °F 37.9 °F 19% 30.04 in 10.0 mi WSW 11.5 mph 18.4 mph N/A   Scattered Clouds
3:52 PM 84.0 °F 37.9 °F 19% 30.02 in 10.0 mi SW 10.4 mph - N/A   Scattered Clouds
4:52 PM 84.0 °F 32.0 °F 15% 30.01 in 10.0 mi SSW 13.8 mph 20.7 mph N/A   Scattered Clouds
5:52 PM 84.2 °F 30.2 °F 14% 30.02 in 10.0 mi WSW 6.9 mph - N/A   Scattered Clouds
6:52 PM 81.0 °F 28.0 °F 14% 30.00 in 10.0 mi SSW 10.4 mph - N/A   Scattered Clouds
7:52 PM 73.9 °F 30.9 °F 21% 30.01 in 10.0 mi SSW 8.1 mph - N/A   Scattered Clouds
8:52 PM 70.0 °F 33.1 °F 26% 30.03 in 10.0 mi SSW 5.8 mph - N/A   Partly Cloudy
9:52 PM 68.0 °F 33.1 °F 27% 30.04 in 10.0 mi South 5.8 mph - N/A   Partly Cloudy
10:52 PM 66.0 °F 34.0 °F 30% 30.04 in 10.0 mi South 3.5 mph - N/A   Clear
11:52 PM 63.0 °F 36.0 °F 37% 30.04 in 10.0 mi South 3.5 mph - N/A   Clear